Location: C�an Torras
(41.5052°N, 1.9280°E)
Time: 00:35:05
(UTC+00:00)

ISS - Pass Details

Date: 20 January 2021
Orbit: 417 x 422 km, 51.6° (Epoch: 08 March)

Event Time Altitude Azimuth Distance (km) Brightness Sun altitude
Rises 17:37:54 0° 218° (SW) 2,356 1.1 -8.5°
Reaches altitude 10° 17:40:02 10° 211° (SSW) 1,497 -0.1 -8.9°
Maximum altitude 17:43:15 43° 139° (SE) 600 -3.2 -9.4°
Enters shadow 17:45:50 15° 70° (ENE) 1,257 -2.0 -9.9°
